This demonstration page uses our WeatherBlox Daily Observations layout. Learn more.

Left ArrowRight Arrow

39.51506, -84.39828

Hourly Observations for September 27, 2016

Temp ( °F °C ) Dew Point ( °F °C ) Humidity (%) Winds ( mph kmh ) Pressure ( in mb ) Visibility ( mi km ) Precip ( " mm )
12:15 am 00:15 Clear 55 12.5 49 9.6 83 83 N N/A 30.06 1018 7 11 N/A
12:35 am 00:35 Mostly Cloudy with Mist and Fog 54 12.3 50 9.8 85 85 N N/A 30.06 1018 1 1 N/A
12:55 am 00:55 Mostly Cloudy with Fog 52 11.2 48 8.7 85 85 N N/A 30.03 1017 1 1 N/A
1:15 am 01:15 Mostly Cloudy with Haze 52 11 47 8.5 85 85 N N/A 30.03 1017 1 1 N/A
1:35 am 01:35 Mostly Cloudy with Haze 51 10.3 46 7.8 85 85 N N/A 30.03 1017 1 2 N/A
1:55 am 01:55 Mostly Cloudy with Fog 52 11.1 47 8.6 85 85 N N/A 30.03 1017 1 1 N/A
2:15 am 02:15 Mostly Cloudy with Mist and Fog 50 10 46 7.5 85 85 S 3 6 30.03 1017 2 2 N/A
2:35 am 02:35 Mostly Cloudy with Mist and Fog 49 9.6 45 7.2 85 85 N N/A 30.03 1017 2 2 N/A
2:55 am 02:55 Mostly Cloudy with Fog 49 9.6 45 7.2 85 85 N N/A 30.03 1017 1 1 N/A
3:15 am 03:15 Hazy 49 9.7 45 7.3 85 85 N N/A 30.03 1017 3 5 N/A
3:35 am 03:35 Mostly Cloudy with Mist and Fog 49 9.6 45 7.2 85 85 N N/A 30.03 1017 1 1 N/A
3:55 am 03:55 Clear with Mist and Fog 49 9.6 45 7.2 85 85 N N/A 30.03 1017 2 3 N/A
4:15 am 04:15 Clear 50 10.2 46 7.8 85 85 S 3 6 30.03 1017 10 16 N/A
4:35 am 04:35 Clear 49 9.6 45 7.2 85 85 SW 3 6 30.00 1016 10 16 N/A
4:55 am 04:55 Clear 49 9.6 45 7.2 85 85 SSW 3 6 30.00 1016 10 16 N/A
5:15 am 05:15 Clear 50 9.8 45 7.4 85 85 N N/A 30.00 1016 10 16 N/A
5:35 am 05:35 Clear 49 9.6 45 7.2 85 85 SW 3 6 30.00 1016 10 16 N/A
5:55 am 05:55 Clear 49 9.6 45 7.2 85 85 SSW 3 6 30.00 1016 10 16 N/A
6:15 am 06:15 Clear 49 9.6 45 7.2 85 85 SW 3 6 30.00 1016 7 11 N/A
6:35 am 06:35 Clear 49 9.6 45 7.2 85 85 SW 3 6 30.00 1016 10 16 N/A
6:55 am 06:55 Clear 49 9.6 45 7.2 85 85 SW 3 6 30.00 1016 10 16 N/A
7:15 am 07:15 Clear 49 9.6 45 7.2 85 85 N N/A 30.00 1016 10 16 N/A
7:35 am 07:35 Sunny 49 9.6 45 7.2 85 85 SSW 3 6 30.00 1016 10 16 N/A
7:55 am 07:55 Sunny with Mist and Fog 49 9.6 45 7.2 85 85 SSW 3 6 30.00 1016 5 8 N/A
8:15 am 08:15 Sunny 49 9.6 45 7.2 85 85 N N/A 30.00 1016 10 16 N/A
8:35 am 08:35 Sunny 55 12.5 50 10 85 85 N N/A 30.00 1016 10 16 N/A
8:55 am 08:55 Sunny 55 12.5 50 9.8 84 84 SSW 8 13 30.00 1016 10 16 N/A
9:15 am 09:15 Sunny 56 13.1 49 9.3 78 78 SW 8 13 30.00 1016 10 16 N/A
9:35 am 09:35 Sunny 57 13.8 49 9.2 74 74 SSW 8 13 30.00 1016 10 16 N/A
9:55 am 09:55 Sunny 60 15.3 49 9.7 69 69 SSW 7 11 29.97 1015 10 16 N/A
10:15 am 10:15 Sunny 60 15.6 48 8.7 64 64 S 8 13 29.97 1015 10 16 N/A
10:35 am 10:35 Sunny 62 16.6 47 8.5 59 59 SSW 8 13 29.97 1015 10 16 N/A
10:55 am 10:55 Sunny 64 18 47 8.4 54 54 SSW 9 15 29.94 1014 10 16 N/A
11:15 am 11:15 Sunny 68 20.1 48 8.7 48 48 SW 9 15 29.94 1014 10 16 N/A
11:35 am 11:35 Sunny 69 20.8 45 7.3 42 42 SW 10 17 29.94 1014 10 16 N/A
11:55 am 11:55 Sunny 69 20.8 44 6.4 39 39 SW 16 26 29.94 1014 10 16 N/A
12:15 pm 12:15 Sunny 71 21.6 42 5.7 36 36 SSW 9 15 29.91 1013 10 16 N/A
12:35 pm 12:35 Sunny 73 23 44 6.5 35 35 SSW 12 19 29.91 1013 10 16 N/A
12:55 pm 12:55 Sunny 74 23.6 42 5.7 32 32 SSW 16 26 29.91 1013 10 16 N/A
1:15 pm 13:15 Sunny 74 23.6 39 3.8 28 28 SSW 21 33 29.91 1013 10 16 N/A
1:35 pm 13:35 Sunny 74 23.6 38 3.6 27 27 SW 15 24 29.88 1012 10 16 N/A
1:55 pm 13:55 Sunny 74 23.6 37 2.9 26 26 SSW 20 31 29.88 1012 10 16 N/A
2:15 pm 14:15 Sunny 74 23.6 38 3.5 27 27 SSW 17 28 29.88 1012 10 16 N/A
2:35 pm 14:35 Partly Cloudy 74 23.6 38 3.1 26 26 SW 20 31 29.85 1011 10 16 N/A
2:55 pm 14:55 Partly Cloudy 74 23.6 38 3.1 26 26 SSW 16 26 29.85 1011 10 16 N/A
3:15 pm 15:15 Sunny 74 23.6 37 2.6 25 25 SW 16 26 29.85 1011 10 16 N/A
3:35 pm 15:35 Partly Cloudy 74 23.6 37 3 26 26 SW 16 26 29.85 1011 10 16 N/A
3:55 pm 15:55 Sunny 74 23.6 37 2.9 26 26 SSW 17 28 29.83 1010 10 16 N/A
4:15 pm 16:15 Sunny 74 23.6 36 2.2 25 25 SW 14 22 29.83 1010 10 16 N/A
4:35 pm 16:35 Partly Cloudy 75 24.1 37 2.9 25 25 SW 15 24 29.83 1010 10 16 N/A
4:55 pm 16:55 Partly Cloudy 76 24.2 37 2.6 24 24 SW 13 20 29.83 1010 10 16 N/A
5:15 pm 17:15 Partly Cloudy 74 23.6 37 3 26 26 SSW 14 22 29.83 1010 10 16 N/A
5:35 pm 17:35 Partly Cloudy 74 23.6 38 3.5 27 27 SSW 15 24 29.83 1010 10 16 N/A
5:55 pm 17:55 Partly Cloudy 74 23.6 37 3 26 26 SSW 16 26 29.83 1010 10 16 N/A
6:35 pm 18:35 Sunny 74 23.6 41 4.8 30 30 SW 8 13 29.83 1010 10 16 N/A
6:55 pm 18:55 Sunny 71 21.9 41 5 33 33 SW 9 15 29.83 1010 10 16 N/A
7:15 pm 19:15 Sunny 69 20.8 44 6.5 40 40 SSW 7 11 29.83 1010 10 16 N/A
7:35 pm 19:35 Clear 65 18.6 47 8.1 51 51 SSW 5 7 29.83 1010 10 16 N/A
7:55 pm 19:55 Clear 63 17.4 48 8.7 57 57 SSW 5 7 29.83 1010 10 16 N/A
8:15 pm 20:15 Clear 60 15.8 49 9.5 66 66 SW 3 6 29.85 1011 10 16 N/A
8:35 pm 20:35 Clear 60 15.3 51 10.4 73 73 N N/A 29.85 1011 10 16 N/A
8:55 pm 20:55 Clear 57 14.1 50 9.9 76 76 SW 3 6 29.85 1011 10 16 N/A
9:15 pm 21:15 Clear 60 15.3 51 10.8 75 75 SW 3 6 29.85 1011 10 16 N/A
9:35 pm 21:35 Clear 57 13.8 50 9.8 77 77 SW 3 6 29.88 1012 10 16 N/A
9:55 pm 21:55 Clear 60 15.3 51 10.3 72 72 SSW 5 7 29.85 1011 10 16 N/A
10:15 pm 22:15 Clear 60 15.3 49 9.4 68 68 SSW 3 6 29.85 1011 10 16 N/A
10:35 pm 22:35 Clear 57 14 50 10 77 77 N N/A 29.88 1012 10 16 N/A
10:55 pm 22:55 Clear 57 13.8 50 10 78 78 N N/A 29.88 1012 10 16 N/A
11:15 pm 23:15 Clear 57 13.8 51 10.3 80 80 N N/A 29.88 1012 10 16 N/A
11:35 pm 23:35 Clear 57 13.8 51 10.3 80 80 N N/A 29.88 1012 10 16 N/A
11:55 pm 23:55 Clear 57 13.8 51 10.5 81 81 N N/A 29.88 1012 10 16 N/A

Powered by AerisWeather